Wind_Speed
37 33 26 20 16 10 9 10 10 9 8 8 9 9 9 8 8 11 13 13 15 15 15 16 18 17 18 19 20 20 18 20 28 34 29 39 40 39 33 29 28 27 32
39 34 29 22 16 11 11 11 9 7 8 9 10 9 8 8 9 9 10 11 13 15 17 17 18 19 20 20 22 22 21 21 26 32 38 39 38 40 40 33 30 28 29
39 36 29 25 20 15 14 14 11 10 10 9 8 7 5 7 7 7 9 11 13 15 14 16 16 17 20 21 23 23 23 25 27 32 36 37 40 41 42 41 35 30 31
40 39 33 29 22 18 14 13 13 12 11 10 9 7 7 8 9 10 13 14 14 14 14 13 17 19 21 22 23 24 25 25 27 32 37 41 45 43 42 41 41 34 31
45 40 35 28 24 20 14 13 14 15 13 11 10 10 12 13 12 14 16 16 17 15 14 16 19 19 20 20 23 26 26 27 28 32 36 41 46 46 44 43 41 42 38
46 42 33 29 25 22 16 14 14 18 16 13 12 12 15 15 15 17 18 18 16 17 20 21 23 21 19 19 22 23 22 26 29 30 30 36 40 38 44 41 43 40 42
47 42 33 31 23 25 18 15 17 19 18 16 14 14 17 16 16 18 17 20 18 20 21 21 20 21 19 18 20 20 21 22 24 24 28 34 37 41 45 42 44 43 43
44 36 33 31 26 25 19 19 20 21 20 18 15 17 19 19 18 19 19 19 17 21 18 14 16 19 18 19 21 21 22 25 24 24 27 32 37 43 43 39 43 43 43
42 32 35 28 28 26 22 22 23 23 21 20 21 9 22 25 25 20 20 19 20 22 19 20 16 17 20 20 19 24 27 26 27 23 25 30 39 44 44 43 43 38 43
44 32 35 29 26 26 24 24 23 22 22 21 22 21 20 22 19 20 21 22 20 21 24 18 17 18 19 18 21 26 30 31 31 29 29 35 40 47 46 38 40 33 37
35 30 31 28 29 24 23 24 22 21 24 22 19 17 18 17 19 19 18 21 21 24 21 18 20 18 18 20 23 27 30 32 32 31 30 35 40 47 51 44 38 19 31
32 33 22 18 28 41 25 20 20 22 25 18 12 15 17 17 18 20 18 18 18 14 17 17 17 15 16 20 23 25 31 31 26 24 24 30 43 51 53 47 32 17 19
29 23 14 11 19 25 19 20 23 22 23 15 13 14 16 17 20 16 17 14 12 14 15 16 16 17 17 17 21 27 29 22 20 20 20 25 36 47 47 47 35 5 10
16 15 21 21 9 20 23 22 26 19 14 14 15 16 17 17 15 16 13 11 13 14 15 17 15 13 14 17 22 25 20 18 18 19 17 20 30 42 45 47 45 26 2
2 7 6 9 17 18 23 16 15 15 14 14 16 15 15 15 13 13 14 15 13 13 15 14 13 13 15 21 21 14 14 14 15 17 16 19 24 31 40 43 45 41 33
6 3 1 16 22 21 19 18 18 16 13 14 15 15 13 12 13 13 14 15 14 15 12 11 11 13 18 14 12 10 12 13 14 14 16 19 19 24 32 38 40 44 39
22 12 14 23 22 22 16 16 15 13 11 14 16 13 11 10 9 10 12 10 10 13 11 13 13 11 8 9 8 9 11 12 12 12 14 17 20 23 27 30 35 37 42
9 10 12 15 11 11 13 13 10 11 12 13 12 9 7 8 9 8 7 8 7 9 12 11 6 6 6 7 8 8 10 11 13 13 14 15 18 20 22 25 30 30 33
8 9 10 10 12 12 12 12 14 13 11 11 9 6 7 9 10 7 8 8 10 10 8 6 6 6 6 7 9 11 11 11 12 13 14 15 17 19 18 17 20 25 23
5 11 10 10 10 13 15 14 11 10 9 10 7 4 6 9 12 12 9 7 5 4 4 5 6 7 7 8 11 13 10 8 7 8 11 13 15 16 17 16 16 17 21
11 12 10 13 13 12 12 11 10 9 10 8 6 5 5 5 7 9 6 5 4 3 2 3 6 8 9 12 13 11 7 4 5 7 9 11 13 16 16 16 15 16 16
16 14 13 13 10 12 13 12 13 11 10 6 8 5 6 5 5 7 6 4 3 2 3 7 9 9 9 8 6 7 4 4 5 6 9 11 12 14 15 16 13 15 16
14 15 11 10 12 13 13 12 13 13 12 11 11 9 8 7 5 4 6 8 6 5 6 9 8 7 4 3 3 4 4 5 6 8 8 9 10 12 15 16 16 14 14
11 10 10 11 11 11 10 12 14 13 11 12 13 12 11 9 6 5 5 10 6 6 8 8 5 4 2 2 2 3 3 4 5 7 6 6 8 8 10 13 15 16 16
9 6 4 3 3 5 7 10 10 10 11 13 14 14 12 10 7 6 4 6 7 9 6 3 4 3 2 1 1 1 2 3 4 6 7 5 5 7 7 9 11 12 14
7 4 6 10 10 9 9 9 11 11 13 12 15 14 13 12 10 9 8 7 8 8 5 3 3 3 2 1 4 4 3 5 5 6 6 5 5 5 6 7 8 9 11
Wind_Direction
215 219 218 218 218 210 216 218 218 222 232 247 263 274 277 274 279 286 283 282 287 286 278 280 286 292 296 293 295 296 300 316 310 314 323 334 331 328 321 310 290 274 265
216 217 221 220 221 224 237 239 239 252 257 264 260 262 266 282 286 286 288 285 285 285 283 285 284 285 297 298 296 291 291 308 312 309 318 327 332 335 323 316 306 277 270
217 220 215 220 218 225 237 238 242 246 246 246 244 257 291 294 292 294 286 289 292 291 298 288 287 290 299 303 300 293 292 299 304 308 315 318 326 333 326 320 312 295 267
217 220 216 219 220 225 232 234 235 233 237 245 250 271 282 284 284 296 295 293 292 297 297 291 299 298 294 295 295 293 294 299 301 303 310 315 321 325 321 317 313 307 282
219 219 218 218 219 221 227 232 229 228 236 247 258 277 280 279 282 284 292 292 294 300 293 296 298 295 295 293 294 300 296 293 303 304 310 317 314 314 322 317 307 304 296
219 219 217 220 217 225 227 228 228 231 237 245 263 284 286 284 282 283 289 295 289 306 302 302 300 294 301 298 295 296 297 295 296 301 311 321 322 317 320 314 305 296 291
217 215 215 215 222 227 229 232 233 238 240 243 260 277 280 288 286 287 284 289 297 308 310 301 295 292 297 300 299 295 293 296 297 296 305 321 327 321 314 311 303 283 284
217 215 211 212 223 227 232 236 237 243 245 247 261 280 284 282 294 290 290 286 293 304 308 324 302 296 299 300 303 300 300 302 304 298 310 315 321 324 316 309 300 287 279
214 215 212 212 229 233 239 240 241 245 248 251 252 292 274 285 300 288 281 276 286 308 299 302 301 296 298 302 303 304 304 305 305 293 310 317 329 326 320 314 298 283 265
211 225 210 219 234 240 246 245 244 248 251 254 256 276 286 279 282 280 281 280 284 302 295 297 293 300 301 301 309 313 311 313 310 300 299 321 325 332 332 322 316 290 245
220 218 218 236 242 240 248 246 246 251 260 263 267 283 285 289 286 286 285 276 289 300 292 298 303 302 298 304 310 312 317 318 311 305 307 321 331 336 341 332 329 266 238
200 207 226 244 250 254 240 242 241 253 264 268 275 279 281 288 280 291 290 292 296 297 305 312 310 300 300 303 307 313 321 317 316 315 319 333 342 344 340 349 353 264 244
198 205 196 248 289 309 292 259 257 261 268 288 273 278 286 286 285 284 290 284 293 306 307 300 291 285 289 296 300 313 321 328 331 328 331 338 345 344 355 0 10 300 243
191 198 227 216 249 275 284 263 261 267 272 266 287 302 299 284 274 280 272 274 286 291 294 296 287 266 284 295 309 321 327 334 338 334 339 347 352 348 3 13 12 32 267
272 340 314 221 216 243 248 244 260 259 263 276 283 279 275 277 270 264 270 274 277 287 292 290 267 260 291 302 315 325 333 335 354 352 346 353 352 355 2 16 20 24 34
154 292 34 248 232 232 247 249 250 265 271 275 269 266 269 273 278 278 280 279 278 274 270 255 263 290 307 315 323 339 351 359 6 7 4 3 1 1 3 11 25 30 27
246 268 224 238 234 231 238 257 263 267 262 273 263 261 269 275 283 293 290 297 275 264 263 271 288 306 314 314 328 353 3 6 8 6 11 9 5 10 11 11 20 29 37
232 208 225 214 229 240 244 234 273 279 280 266 259 257 259 269 283 296 305 300 265 262 268 276 269 279 289 306 324 337 342 348 1 4 0 8 12 14 15 13 20 26 37
249 238 237 249 255 250 246 269 283 274 279 264 259 270 286 283 287 283 302 288 272 271 258 221 236 259 289 311 323 328 335 346 353 355 359 5 14 15 22 22 22 30 43
234 262 267 268 242 254 280 280 266 273 254 239 254 269 287 286 287 287 289 285 270 235 225 233 249 268 291 318 325 327 324 334 356 9 12 11 18 23 23 28 26 29 40
237 242 254 266 263 283 278 265 280 261 254 251 230 253 283 292 292 281 269 258 238 230 252 289 297 302 313 323 325 329 331 356 17 34 37 32 27 30 29 31 40 44 44
243 247 257 254 252 263 276 272 260 234 222 253 248 270 297 299 301 292 252 230 222 230 303 322 316 313 320 325 343 6 45 56 41 58 51 48 39 37 36 37 43 49 52
254 259 250 259 266 271 270 253 233 230 244 255 253 265 269 266 283 308 232 221 232 251 312 319 320 324 333 1 31 41 59 67 59 54 50 49 47 35 37 41 43 51 51
262 246 260 274 270 267 259 248 230 247 253 237 242 250 247 243 265 301 262 233 223 254 297 307 322 354 28 51 48 49 48 40 38 31 27 33 38 40 42 46 49 49 54
248 263 265 252 287 270 246 242 250 259 241 255 256 258 240 239 247 279 311 239 252 269 270 309 350 340 2 13 21 342 325 336 360 17 16 14 18 32 34 46 46 53 56
196 253 290 261 253 251 253 253 246 251 244 262 252 246 240 243 243 254 267 275 279 266 269 310 344 12 19 53 36 1 318 304 319 345 5 13 27 45 50 48 52 52 59
Height
1523 1526 1530 1533 1534 1535 1537 1539 1538 1539 1539 1539 1539 1538 1537 1537 1537 1537 1535 1534 1534 1533 1532 1531 1530 1528 1527 1526 1524 1522 1520 1517 1510 1504 1503 1499 1493 1487 1483 1479 1476 1474 1472
1518 1523 1526 1529 1531 1531 1533 1535 1535 1536 1536 1536 1535 1535 1535 1534 1532 1531 1531 1531 1531 1529 1528 1527 1525 1523 1522 1520 1519 1517 1515 1512 1507 1499 1496 1492 1488 1482 1476 1471 1466 1465 1463
1514 1518 1522 1524 1526 1527 1528 1531 1531 1532 1533 1533 1533 1532 1532 1531 1530 1529 1527 1526 1525 1524 1523 1522 1521 1519 1516 1514 1513 1511 1509 1507 1503 1496 1489 1486 1481 1476 1467 1463 1458 1454 1452
1508 1510 1514 1517 1521 1524 1525 1527 1527 1529 1529 1529 1529 1529 1528 1528 1528 1526 1524 1523 1521 1519 1517 1516 1515 1512 1510 1508 1506 1504 1502 1499 1496 1491 1484 1478 1473 1468 1463 1455 1447 1445 1441
1500 1504 1508 1512 1517 1520 1520 1523 1523 1524 1525 1525 1526 1526 1525 1524 1524 1524 1522 1519 1517 1515 1513 1511 1509 1507 1505 1502 1500 1497 1495 1492 1489 1484 1478 1472 1465 1460 1455 1448 1442 1435 1429
1494 1498 1505 1510 1514 1515 1516 1517 1518 1519 1521 1523 1523 1523 1522 1521 1520 1518 1518 1515 1513 1509 1507 1505 1502 1501 1498 1496 1494 1492 1489 1485 1482 1478 1474 1466 1459 1453 1448 1441 1435 1430 1421
1486 1492 1499 1505 1508 1509 1511 1512 1514 1514 1517 1518 1518 1519 1519 1518 1516 1514 1512 1511 1509 1505 1502 1498 1496 1494 1492 1490 1487 1485 1483 1481 1477 1472 1467 1461 1452 1448 1440 1429 1424 1419 1414
1484 1491 1495 1498 1500 1503 1506 1508 1509 1511 1512 1514 1516 1516 1514 1512 1510 1508 1509 1507 1505 1501 1497 1493 1491 1489 1487 1483 1480 1478 1476 1473 1469 1466 1460 1453 1447 1438 1430 1419 1409 1403 1399
1478 1486 1489 1492 1494 1498 1501 1502 1503 1504 1507 1510 1512 1509 1509 1510 1506 1504 1503 1501 1499 1496 1491 1489 1486 1484 1481 1477 1475 1472 1469 1466 1462 1458 1453 1447 1439 1429 1418 1403 1394 1388 1382
1471 1476 1482 1488 1491 1493 1494 1495 1496 1499 1499 1502 1505 1503 1501 1501 1501 1498 1498 1496 1493 1490 1487 1484 1481 1478 1475 1472 1469 1466 1461 1457 1452 1447 1443 1437 1429 1417 1404 1390 1380 1370 1369
1470 1477 1483 1486 1487 1487 1487 1489 1491 1493 1495 1493 1497 1497 1497 1496 1494 1494 1492 1490 1486 1483 1481 1479 1476 1473 1470 1468 1465 1462 1456 1450 1444 1440 1435 1430 1420 1408 1390 1375 1367 1359 1360
1473 1478 1482 1484 1485 1481 1481 1481 1486 1487 1487 1489 1491 1491 1490 1489 1489 1488 1486 1484 1481 1478 1477 1474 1472 1469 1466 1464 1461 1457 1452 1446 1440 1435 1431 1424 1415 1400 1381 1364 1355 1351 1352
1467 1472 1470 1476 1484 1473 1456 1481 1478 1481 1483 1484 1485 1485 1485 1482 1483 1482 1481 1479 1477 1475 1473 1471 1468 1465 1462 1460 1458 1454 1448 1442 1437 1432 1427 1421 1413 1400 1382 1364 1354 1347 1349
1464 1465 1464 1464 1477 1485 1478 1475 1478 1482 1481 1479 1478 1478 1479 1479 1478 1477 1476 1474 1473 1472 1470 1467 1464 1461 1459 1457 1455 1451 1446 1441 1435 1429 1424 1420 1413 1401 1384 1368 1361 1349 1349
1464 1465 1464 1468 1467 1471 1473 1472 1475 1476 1475 1473 1473 1474 1475 1475 1473 1472 1471 1471 1469 1467 1465 1463 1461 1458 1457 1455 1452 1448 1444 1438 1434 1428 1423 1418 1411 1402 1390 1379 1368 1360 1354
1459 1459 1464 1472 1471 1469 1472 1474 1473 1472 1471 1471 1471 1472 1470 1469 1469 1468 1467 1466 1465 1463 1461 1460 1459 1456 1454 1452 1449 1445 1441 1437 1432 1428 1423 1418 1413 1406 1394 1386 1376 1366 1359
1450 1452 1449 1461 1463 1466 1466 1470 1468 1468 1467 1467 1467 1466 1466 1466 1465 1464 1464 1462 1460 1459 1458 1457 1455 1454 1452 1450 1447 1444 1440 1437 1432 1428 1424 1420 1414 1407 1398 1392 1384 1377 1368
1450 1452 1453 1457 1459 1460 1462 1463 1464 1464 1462 1463 1462 1462 1462 1463 1462 1461 1461 1459 1458 1456 1455 1454 1452 1452 1451 1448 1446 1444 1441 1437 1433 1429 1425 1420 1415 1409 1402 1398 1390 1385 1378
1455 1453 1453 1453 1454 1455 1458 1459 1459 1459 1459 1459 1459 1460 1460 1460 1460 1459 1458 1457 1455 1453 1452 1451 1450 1450 1449 1447 1445 1443 1440 1437 1434 1429 1425 1420 1416 1411 1408 1404 1399 1392 1386
1445 1449 1449 1451 1450 1451 1452 1451 1451 1452 1455 1455 1455 1457 1458 1459 1457 1456 1455 1454 1452 1451 1451 1450 1449 1448 1447 1446 1444 1441 1438 1436 1434 1431 1427 1422 1417 1414 1411 1408 1403 1399 1395
1442 1444 1446 1446 1446 1448 1449 1449 1449 1450 1453 1454 1454 1455 1455 1455 1455 1454 1453 1451 1450 1449 1449 1449 1448 1447 1446 1444 1441 1438 1436 1435 1434 1432 1429 1425 1421 1417 1413 1410 1407 1404 1400
1440 1441 1442 1443 1443 1444 1446 1446 1448 1449 1451 1451 1452 1452 1452 1452 1453 1452 1451 1450 1448 1448 1448 1448 1447 1445 1444 1442 1440 1438 1436 1436 1434 1433 1431 1428 1424 1420 1417 1413 1410 1407 1405
1437 1438 1438 1440 1442 1441 1441 1443 1446 1447 1447 1447 1448 1449 1449 1450 1451 1450 1449 1448 1447 1447 1447 1446 1445 1443 1442 1441 1440 1439 1438 1437 1435 1434 1432 1430 1428 1424 1421 1417 1414 1411 1409
1433 1434 1436 1437 1437 1439 1438 1441 1443 1443 1443 1444 1445 1445 1446 1447 1448 1448 1446 1445 1445 1445 1446 1445 1444 1443 1442 1441 1441 1440 1439 1437 1436 1436 1434 1432 1431 1429 1426 1423 1420 1417 1414
1431 1432 1433 1433 1434 1435 1437 1439 1440 1440 1440 1441 1441 1442 1443 1443 1444 1444 1444 1444 1443 1443 1444 1444 1443 1442 1442 1441 1441 1440 1439 1438 1437 1436 1435 1433 1432 1430 1428 1427 1425 1423 1420
1429 1430 1430 1430 1432 1434 1434 1435 1436 1436 1437 1437 1437 1438 1439 1440 1440 1441 1441 1441 1441 1441 1441 1442 1442 1442 1441 1441 1440 1440 1438 1437 1436 1436 1435 1434 1433 1432 1430 1429 1427 1426 1424